Showing default

HG-02, 60327

Orbit data source: Space-Track

HG-02, 60327 is a payload satellite owned by CNSA (CN) in GEO that was launched on Thu, 01 Aug 2024 UTC via a CHANG ZHENG 3B launch vehicle from the Xichang Space Center, China (XSC). Payload-class satellites include a variety of spacecraft equipped with specific instruments for various scientific and technological missions. These include communications satellites like Starlink; space stations such as the ISS; scientific satellites like the Hubble; Earth observation satellites from companies like Planet Labs, Umbra, and HawkEye 360; GPS; miniature CubeSats for education and research; and military/defense satellites.

Not visible in the next 10 days
Identifier
60327, 2024-135A
Orbit
GEO
Country
Flag of CNCN / PRC
Related business
Manufacturer
CAST
Mission
Operational Civil Communications
Bus & Motor
DFH-4?, FY-25?
Mass
~4,000 kg wet, ~2,000 kg dry
Launch date (UTC)
2024-08-01 (2 years ago)
Launch vehicle
CHANG ZHENG 3B
Launch site
Xichang Space Center, China (XSC)
Object type
Payload
Rocket body
Debris
Shape & HBR
Box + 2 Pan, 10.0 m
Radar Cross Section
17.671 m², Large (>1 m²)

Expand to show TLE details & history
Last TLE update: 9 hours ago

TLE from 9 hours ago
0 HG-02
1 60327U 24135A   26123.22640297 -.00000166  00000-0  00000-0 0  9993
2 60327   0.0440 353.9390 0008837   8.6602  93.1445  1.00272678  7059
Epoch: 2026-05-03T05:26Z
TLE epoch observation values (Epoch: 2026-05-03T05:26:01.216Z)
Latitude
0.03537°
Longitude
153.20107°
Altitude
35,787.707 km
Speed
3.075 km/s
True Right ascension
06h 23m 21s
True Declination
0° 02' 07"
Sunlit
Object was in daylight at epoch
Visualization orbit readout
Latitude
Unknown
Longitude
Unknown
Altitude
Unknown
Speed
Unknown
Apparent Right ascension
Unknown
Apparent Declination
Unknown
Sunlit
N/A
Visualization observer readout
Local Sidereal Time
22:41:25
Azimuth
Unknown
Elevation
Unknown
Doppler factor
Unknown
Orbital elements
Apogee altitude
35,824.677 km
Perigee altitude
35,750.153 km
Semi-major axis
42,165.552 km
Eccentricity
0.00088
Inclination
0.044°
RAAN
353.939°
Arg. of periapsis
8.6602°
True anomaly
93.24561°
Mean anomaly
93.1445°
Eccentric anomaly
93.19505°
Mean motion
0.25067 °/min
Orbital period
1,436.14 mins
BSTAR
0
Loading maneuver chart data...
Computing Atmospheric mass density...
Loading historical data...
Loading historical data...
Loading historical data...
Loading historical data...
Loading historical data...
Loading historical data...
Loading historical data...
Other satellites on launch #135 in the year 2024 (2024-08-01 UTC)

Documentation

Showing up to 5 results
|